Time,TemperatureF,DewpointF,PressureIn,WindDirection,WindDirectionDegrees,WindSpeedMPH,WindSpeedGustMPH,Humidity,HourlyPrecipIn,Conditions,Clouds,dailyrainin,SolarRadiationWatts/m^2,SoftwareType,DateUTC
2013-03-02 00:00:00,24.0,16.0,-100.00,NNW,337,2.0,-999.0,71,-99.99,,,-99.99,0.000000,,2013-03-02 05:00:00,
2013-03-02 00:32:00,24.0,16.0,-100.00,NNW,337,2.0,-999.0,71,-99.99,,,-99.99,0.000000,,2013-03-02 05:32:00,
2013-03-02 00:42:00,24.0,16.0,-100.00,NNW,337,2.0,-999.0,71,-99.99,,,-99.99,0.000000,,2013-03-02 05:42:00,
2013-03-02 00:52:00,24.0,16.0,-100.00,NNW,337,2.0,-999.0,71,-99.99,,,-99.99,0.000000,,2013-03-02 05:52:00,
2013-03-02 01:00:00,24.0,17.0,-100.00,NW,315,3.0,-999.0,72,-99.99,,,-99.99,0.000000,,2013-03-02 06:00:00,
2013-03-02 01:42:00,24.0,17.0,-100.00,NW,315,3.0,-999.0,72,-99.99,,,-99.99,0.000000,,2013-03-02 06:42:00,
2013-03-02 01:52:00,24.0,17.0,-100.00,NW,315,3.0,-999.0,72,-99.99,,,-99.99,0.000000,,2013-03-02 06:52:00,
2013-03-02 02:00:00,24.0,17.0,-100.00,NNW,337,4.0,-999.0,71,-99.99,,,-99.99,0.000000,,2013-03-02 07:00:00,
2013-03-02 02:32:00,24.0,17.0,-100.00,NNW,337,4.0,-999.0,71,-99.99,,,-99.99,0.000000,,2013-03-02 07:32:00,
2013-03-02 02:42:00,24.0,17.0,-100.00,NNW,337,4.0,-999.0,71,-99.99,,,-99.99,0.000000,,2013-03-02 07:42:00,
2013-03-02 02:52:00,24.0,17.0,-100.00,NNW,337,4.0,-999.0,71,-99.99,,,-99.99,0.000000,,2013-03-02 07:52:00,
2013-03-02 03:00:00,24.0,17.0,-100.00,NNW,337,4.0,-999.0,72,-99.99,,,-99.99,0.000000,,2013-03-02 08:00:00,
2013-03-02 03:43:00,24.0,17.0,-100.00,NNW,337,4.0,-999.0,72,-99.99,,,-99.99,0.000000,,2013-03-02 08:43:00,
2013-03-02 03:52:00,24.0,17.0,-100.00,NNW,337,4.0,-999.0,72,-99.99,,,-99.99,0.000000,,2013-03-02 08:52:00,
2013-03-02 04:00:00,23.0,17.0,-100.00,North,0,5.0,-999.0,76,-99.99,,,-99.99,0.000000,,2013-03-02 09:00:00,
2013-03-02 04:42:00,23.0,17.0,-100.00,North,0,5.0,-999.0,76,-99.99,,,-99.99,0.000000,,2013-03-02 09:42:00,
2013-03-02 04:52:00,23.0,17.0,-100.00,North,0,5.0,-999.0,76,-99.99,,,-99.99,0.000000,,2013-03-02 09:52:00,
2013-03-02 05:00:00,23.0,16.0,-100.00,North,0,5.0,-999.0,76,-99.99,,,-99.99,0.000000,,2013-03-02 10:00:00,
2013-03-02 05:43:00,23.0,16.0,-100.00,North,0,5.0,-999.0,76,-99.99,,,-99.99,0.000000,,2013-03-02 10:43:00,
2013-03-02 05:52:00,23.0,16.0,-100.00,North,0,5.0,-999.0,76,-99.99,,,-99.99,0.000000,,2013-03-02 10:52:00,
2013-03-02 06:00:00,22.0,15.0,-100.00,NNE,22,3.0,-999.0,75,-99.99,,,-99.99,0.000000,,2013-03-02 11:00:00,
2013-03-02 06:42:00,22.0,15.0,-100.00,NNE,22,3.0,-999.0,75,-99.99,,,-99.99,0.000000,,2013-03-02 11:42:00,
2013-03-02 06:52:00,22.0,15.0,-100.00,NNE,22,3.0,-999.0,75,-99.99,,,-99.99,0.000000,,2013-03-02 11:52:00,
2013-03-02 07:00:00,22.0,15.0,-100.00,NNW,337,4.0,-999.0,75,-99.99,,,-99.99,0.000000,,2013-03-02 12:00:00,
2013-03-02 07:43:00,22.0,15.0,-100.00,NNW,337,4.0,-999.0,75,-99.99,,,-99.99,0.000000,,2013-03-02 12:43:00,
2013-03-02 07:53:00,22.0,15.0,-100.00,NNW,337,4.0,-999.0,75,-99.99,,,-99.99,0.000000,,2013-03-02 12:53:00,
2013-03-02 08:00:00,20.0,14.0,-100.00,North,0,5.0,-999.0,76,-99.99,,,-99.99,13.920000,,2013-03-02 13:00:00,
2013-03-02 08:42:00,20.0,14.0,-100.00,North,0,5.0,-999.0,76,-99.99,,,-99.99,13.920000,,2013-03-02 13:42:00,
2013-03-02 08:52:00,20.0,14.0,-100.00,North,0,5.0,-999.0,76,-99.99,,,-99.99,13.920000,,2013-03-02 13:52:00,
2013-03-02 09:00:00,21.0,12.0,-100.00,North,0,5.0,-999.0,67,-99.99,,,-99.99,153.119995,,2013-03-02 14:00:00,
2013-03-02 09:32:00,21.0,12.0,-100.00,North,0,5.0,-999.0,67,-99.99,,,-99.99,153.119995,,2013-03-02 14:32:00,
2013-03-02 09:42:00,21.0,12.0,-100.00,North,0,5.0,-999.0,67,-99.99,,,-99.99,153.119995,,2013-03-02 14:42:00,
2013-03-02 09:52:00,21.0,12.0,-100.00,North,0,5.0,-999.0,67,-99.99,,,-99.99,153.119995,,2013-03-02 14:52:00,
2013-03-02 10:00:00,22.0,12.0,-100.00,NNW,337,5.0,-999.0,65,-99.99,,,-99.99,271.440002,,2013-03-02 15:00:00,
2013-03-02 10:42:00,22.0,12.0,-100.00,NNW,337,5.0,-999.0,65,-99.99,,,-99.99,271.440002,,2013-03-02 15:42:00,
2013-03-02 10:52:00,22.0,12.0,-100.00,NNW,337,5.0,-999.0,65,-99.99,,,-99.99,271.440002,,2013-03-02 15:52:00,
2013-03-02 11:00:00,24.0,13.0,-100.00,North,0,7.0,-999.0,61,-99.99,,,-99.99,438.480011,,2013-03-02 16:00:00,
2013-03-02 11:42:00,24.0,13.0,-100.00,North,0,7.0,-999.0,61,-99.99,,,-99.99,438.480011,,2013-03-02 16:42:00,
2013-03-02 11:52:00,24.0,13.0,-100.00,North,0,7.0,-999.0,61,-99.99,,,-99.99,438.480011,,2013-03-02 16:52:00,
2013-03-02 12:00:00,26.0,14.0,-100.00,North,0,8.0,-999.0,60,-99.99,,,-99.99,503.440002,,2013-03-02 17:00:00,
2013-03-02 12:42:00,26.0,14.0,-100.00,North,0,8.0,-999.0,60,-99.99,,,-99.99,503.440002,,2013-03-02 17:42:00,
2013-03-02 12:52:00,26.0,14.0,-100.00,North,0,8.0,-999.0,60,-99.99,,,-99.99,503.440002,,2013-03-02 17:52:00,
2013-03-02 13:00:00,27.0,14.0,-100.00,NNW,337,7.0,-999.0,57,-99.99,,,-99.99,548.679993,,2013-03-02 18:00:00,
2013-03-02 13:32:00,27.0,14.0,-100.00,NNW,337,7.0,-999.0,57,-99.99,,,-99.99,548.679993,,2013-03-02 18:32:00,
2013-03-02 13:42:00,27.0,14.0,-100.00,NNW,337,7.0,-999.0,57,-99.99,,,-99.99,548.679993,,2013-03-02 18:42:00,
2013-03-02 13:52:00,27.0,14.0,-100.00,NNW,337,7.0,-999.0,57,-99.99,,,-99.99,548.679993,,2013-03-02 18:52:00,
2013-03-02 14:00:00,27.0,14.0,-100.00,NNW,337,8.0,-999.0,57,-99.99,,,-99.99,570.719971,,2013-03-02 19:00:00,
2013-03-02 14:43:00,27.0,14.0,-100.00,NNW,337,8.0,-999.0,57,-99.99,,,-99.99,570.719971,,2013-03-02 19:43:00,
2013-03-02 14:52:00,27.0,14.0,-100.00,NNW,337,8.0,-999.0,57,-99.99,,,-99.99,570.719971,,2013-03-02 19:52:00,
2013-03-02 15:00:00,27.0,16.0,-100.00,NW,315,8.0,-999.0,60,-99.99,,,-99.99,493.000000,,2013-03-02 20:00:00,
2013-03-02 15:42:00,27.0,16.0,-100.00,NW,315,8.0,-999.0,60,-99.99,,,-99.99,493.000000,,2013-03-02 20:42:00,
2013-03-02 15:53:00,27.0,16.0,-100.00,NW,315,8.0,-999.0,60,-99.99,,,-99.99,493.000000,,2013-03-02 20:53:00,
2013-03-02 16:00:00,28.0,16.0,-100.00,NNW,337,8.0,-999.0,58,-99.99,,,-99.99,425.720001,,2013-03-02 21:00:00,
2013-03-02 16:42:00,28.0,16.0,-100.00,NNW,337,8.0,-999.0,58,-99.99,,,-99.99,425.720001,,2013-03-02 21:42:00,
2013-03-02 16:52:00,28.0,16.0,-100.00,NNW,337,8.0,-999.0,58,-99.99,,,-99.99,425.720001,,2013-03-02 21:52:00,
2013-03-02 17:00:00,27.0,16.0,-100.00,NW,315,8.0,-999.0,60,-99.99,,,-99.99,220.399994,,2013-03-02 22:00:00,
2013-03-02 17:42:00,27.0,16.0,-100.00,NW,315,8.0,-999.0,60,-99.99,,,-99.99,220.399994,,2013-03-02 22:42:00,
2013-03-02 17:52:00,27.0,16.0,-100.00,NW,315,8.0,-999.0,60,-99.99,,,-99.99,220.399994,,2013-03-02 22:52:00,
2013-03-02 18:00:00,26.0,15.0,-100.00,NW,315,7.0,-999.0,62,-99.99,,,-99.99,114.839996,,2013-03-02 23:00:00,
2013-03-02 18:42:00,26.0,15.0,-100.00,NW,315,7.0,-999.0,62,-99.99,,,-99.99,114.839996,,2013-03-02 23:42:00,
2013-03-02 18:52:00,26.0,15.0,-100.00,NW,315,7.0,-999.0,62,-99.99,,,-99.99,114.839996,,2013-03-02 23:52:00,
2013-03-02 19:00:00,25.0,15.0,-100.00,NNW,337,5.0,-999.0,65,-99.99,,,-99.99,8.120000,,2013-03-03 00:00:00,
2013-03-02 19:42:00,25.0,15.0,-100.00,NNW,337,5.0,-999.0,65,-99.99,,,-99.99,8.120000,,2013-03-03 00:42:00,
2013-03-02 19:52:00,25.0,15.0,-100.00,NNW,337,5.0,-999.0,65,-99.99,,,-99.99,8.120000,,2013-03-03 00:52:00,
2013-03-02 20:00:00,25.0,15.0,-100.00,North,0,6.0,-999.0,65,-99.99,,,-99.99,0.000000,,2013-03-03 01:00:00,
2013-03-02 20:42:00,25.0,15.0,-100.00,North,0,6.0,-999.0,65,-99.99,,,-99.99,0.000000,,2013-03-03 01:42:00,
2013-03-02 20:52:00,25.0,15.0,-100.00,North,0,6.0,-999.0,65,-99.99,,,-99.99,0.000000,,2013-03-03 01:52:00,
2013-03-02 21:00:00,25.0,15.0,-100.00,North,0,3.0,-999.0,66,-99.99,,,-99.99,0.000000,,2013-03-03 02:00:00,
2013-03-02 21:42:00,25.0,15.0,-100.00,North,0,3.0,-999.0,66,-99.99,,,-99.99,0.000000,,2013-03-03 02:42:00,
2013-03-02 21:52:00,25.0,15.0,-100.00,North,0,3.0,-999.0,66,-99.99,,,-99.99,0.000000,,2013-03-03 02:52:00,
2013-03-02 22:00:00,25.0,16.0,-100.00,NNW,337,1.0,-999.0,68,-99.99,,,-99.99,0.000000,,2013-03-03 03:00:00,
2013-03-02 22:42:00,25.0,16.0,-100.00,NNW,337,1.0,-999.0,68,-99.99,,,-99.99,0.000000,,2013-03-03 03:42:00,
2013-03-02 22:52:00,25.0,16.0,-100.00,NNW,337,1.0,-999.0,68,-99.99,,,-99.99,0.000000,,2013-03-03 03:52:00,
2013-03-02 23:00:00,25.0,17.0,-100.00,NW,315,4.0,-999.0,70,-99.99,,,-99.99,0.000000,,2013-03-03 04:00:00,
2013-03-02 23:42:00,25.0,17.0,-100.00,NW,315,4.0,-999.0,70,-99.99,,,-99.99,0.000000,,2013-03-03 04:42:00,
2013-03-02 23:52:00,25.0,17.0,-100.00,NW,315,4.0,-999.0,70,-99.99,,,-99.99,0.000000,,2013-03-03 04:52:00,